When you browse on this site, cookies collect data to enhance your experience and personalize the content and advertising you see.
Visit our Privacy Policy to learn more. By continuing to use the site, you agree to this use of cookies and data.
  • In Romania
  • List of Countries
  • For 7 days
  • Water Temperature
  • Satellite Maps
  • Weather Map
  • Weather Widgets
  • user-avatar
    Login

    Hourly Weather San Fernando de Apure

    Today, 20 February, Wednesday

    Time Temperature Precipitation Wind Pressure Humidity
    00:00 +32°C° 0 mm 4 mps 754 mmHg 45%
    01:00 +32°C° 0 mm 4 mps 754 mmHg 49%
    02:00 +30°C° 0 mm 4 mps 754 mmHg 54%
    03:00 +29°C° 0 mm 4 mps 754 mmHg 56%
    04:00 +29°C° 0 mm 4 mps 754 mmHg 59%
    05:00 +28°C° 0 mm 4 mps 754 mmHg 61%
    06:00 +28°C° 0 mm 4 mps 754 mmHg 60%
    07:00 +29°C° 0 mm 5 mps 754 mmHg 59%
    08:00 +29°C° 0 mm 5 mps 755 mmHg 58%
    09:00 +30°C° 0 mm 5 mps 755 mmHg 52%
    10:00 +33°C° 0 mm 5 mps 755 mmHg 46%
    11:00 +35°C° 0 mm 5 mps 755 mmHg 40%
    12:00 +36°C° 0 mm 5 mps 754 mmHg 36%
    13:00 +39°C° 0 mm 5 mps 753 mmHg 32%
    14:00 +40°C° 0 mm 5 mps 753 mmHg 29%
    15:00 +40°C° 0 mm 4 mps 752 mmHg 28%
    16:00 +40°C° 0 mm 4 mps 751 mmHg 27%
    17:00 +40°C° 0 mm 4 mps 750 mmHg 25%
    18:00 +37°C° 0 mm 3 mps 751 mmHg 28%
    19:00 +35°C° 0 mm 2 mps 751 mmHg 30%
    20:00 +34°C° 0 mm 2 mps 751 mmHg 33%
    21:00 +32°C° 0 mm 2 mps 752 mmHg 34%
    22:00 +32°C° 0 mm 2 mps 752 mmHg 34%
    23:00 +33°C° 0 mm 3 mps 753 mmHg 35%

    Tomorrow, 21 February, Thursday

    Time Temperature Precipitation Wind Pressure Humidity
    00:00 +31°C° 0 mm 3 mps 753 mmHg 40%
    01:00 +30°C° 0 mm 3 mps 753 mmHg 45%
    02:00 +29°C° 0 mm 3 mps 753 mmHg 51%
    03:00 +28°C° 0 mm 4 mps 753 mmHg 54%
    04:00 +28°C° 0 mm 4 mps 753 mmHg 57%
    05:00 +28°C° 0 mm 4 mps 753 mmHg 60%
    06:00 +28°C° 0 mm 4 mps 754 mmHg 60%
    07:00 +28°C° 0 mm 5 mps 754 mmHg 60%
    08:00 +28°C° 0 mm 5 mps 755 mmHg 60%
    09:00 +30°C° 0 mm 5 mps 755 mmHg 55%
    10:00 +33°C° 0 mm 5 mps 756 mmHg 50%
    11:00 +34°C° 0 mm 6 mps 756 mmHg 45%
    12:00 +36°C° 0 mm 5 mps 755 mmHg 42%
    13:00 +37°C° 0 mm 5 mps 754 mmHg 38%
    14:00 +39°C° 0 mm 5 mps 752 mmHg 34%
    15:00 +39°C° 0 mm 5 mps 752 mmHg 33%
    16:00 +39°C° 0 mm 5 mps 751 mmHg 32%
    17:00 +38°C° 0 mm 4 mps 750 mmHg 32%
    18:00 +37°C° 0 mm 4 mps 750 mmHg 35%
    19:00 +36°C° 0 mm 3 mps 751 mmHg 38%
    20:00 +34°C° 0 mm 3 mps 751 mmHg 41%
    21:00 +34°C° 0 mm 3 mps 752 mmHg 42%
    22:00 +33°C° 0 mm 3 mps 753 mmHg 43%
    23:00 +33°C° 0 mm 3 mps 753 mmHg 45%

    Day after tomorrow, 22 February, Friday

    Time Temperature Precipitation Wind Pressure Humidity
    00:00 +31°C° 0 mm 3 mps 753 mmHg 49%
    01:00 +30°C° 0 mm 4 mps 753 mmHg 53%
    02:00 +29°C° 0 mm 4 mps 753 mmHg 56%
    03:00 +29°C° 0 mm 4 mps 753 mmHg 58%
    04:00 +29°C° 0 mm 4 mps 753 mmHg 60%
    05:00 +29°C° 0 mm 4 mps 753 mmHg 61%
    06:00 +29°C° 0 mm 5 mps 754 mmHg 60%
    07:00 +29°C° 0 mm 5 mps 755 mmHg 59%
    08:00 +29°C° 0 mm 6 mps 755 mmHg 58%
    09:00 +32°C° 0 mm 6 mps 756 mmHg 52%
    10:00 +33°C° 0 mm 6 mps 756 mmHg 46%
    11:00 +35°C° 0 mm 6 mps 756 mmHg 40%
    12:00 +38°C° 0 mm 6 mps 755 mmHg 37%
    13:00 +39°C° 0 mm 6 mps 754 mmHg 34%
    14:00 +40°C° 0 mm 5 mps 752 mmHg 31%
    15:00 +40°C° 0 mm 5 mps 752 mmHg 30%
    16:00 +40°C° 0 mm 5 mps 751 mmHg 30%
    17:00 +40°C° 0 mm 4 mps 750 mmHg 29%
    18:00 +38°C° 0 mm 4 mps 751 mmHg 31%
    19:00 +36°C° 0 mm 3 mps 751 mmHg 34%
    20:00 +35°C° 0 mm 2 mps 752 mmHg 36%
    21:00 +34°C° 0 mm 3 mps 753 mmHg 37%
    22:00 +34°C° 0 mm 4 mps 753 mmHg 38%
    23:00 +34°C° 0 mm 4 mps 754 mmHg 39%

    23 February, Saturday

    Time Temperature Precipitation Wind Pressure Humidity
    00:00 +33°C° 0 mm 4 mps 754 mmHg 44%
    01:00 +32°C° 0 mm 4 mps 754 mmHg 48%
    02:00 +30°C° 0 mm 4 mps 754 mmHg 52%
    03:00 +30°C° 0 mm 4 mps 754 mmHg 53%
    04:00 +29°C° 0 mm 4 mps 754 mmHg 53%
    05:00 +29°C° 0 mm 4 mps 754 mmHg 54%
    06:00 +29°C° 0 mm 4 mps 755 mmHg 55%
    07:00 +29°C° 0 mm 5 mps 755 mmHg 55%
    08:00 +28°C° 0 mm 5 mps 756 mmHg 56%
    09:00 +30°C° 0 mm 6 mps 756 mmHg 52%
    10:00 +32°C° 0 mm 6 mps 756 mmHg 48%
    11:00 +34°C° 0 mm 6 mps 756 mmHg 45%
    12:00 +35°C° 0 mm 6 mps 755 mmHg 41%
    13:00 +36°C° 0 mm 6 mps 754 mmHg 36%
    14:00 +38°C° 0 mm 6 mps 753 mmHg 32%
    15:00 +39°C° 0 mm 5 mps 752 mmHg 30%
    16:00 +39°C° 0 mm 5 mps 751 mmHg 27%
    17:00 +39°C° 0 mm 5 mps 750 mmHg 24%
    18:00 +36°C° 0 mm 4 mps 751 mmHg 26%
    19:00 +35°C° 0 mm 3 mps 751 mmHg 27%
    20:00 +32°C° 0 mm 2 mps 752 mmHg 29%
    21:00 +33°C° 0 mm 3 mps 753 mmHg 33%
    22:00 +33°C° 0 mm 4 mps 753 mmHg 37%
    23:00 +32°C° 0 mm 5 mps 754 mmHg 42%

    24 February, Sunday

    Time Temperature Precipitation Wind Pressure Humidity
    00:00 +32°C° 0 mm 5 mps 754 mmHg 47%
    01:00 +30°C° 0 mm 4 mps 754 mmHg 52%
    02:00 +29°C° 0 mm 4 mps 754 mmHg 57%
    03:00 +29°C° 0 mm 3 mps 754 mmHg 59%
    04:00 +28°C° 0 mm 3 mps 754 mmHg 61%
    05:00 +28°C° 0 mm 3 mps 754 mmHg 62%
    06:00 +28°C° 0 mm 3 mps 755 mmHg 61%
    07:00 +28°C° 0 mm 4 mps 755 mmHg 61%
    08:00 +29°C° 0 mm 5 mps 756 mmHg 60%
    09:00 +30°C° 0 mm 5 mps 756 mmHg 54%
    10:00 +33°C° 0 mm 5 mps 756 mmHg 48%
    11:00 +34°C° 0 mm 5 mps 756 mmHg 42%
    12:00 +36°C° 0 mm 5 mps 755 mmHg 36%
    13:00 +37°C° 0 mm 5 mps 753 mmHg 31%
    14:00 +39°C° 0 mm 5 mps 752 mmHg 26%
    15:00 +40°C° 0 mm 5 mps 751 mmHg 23%
    16:00 +40°C° 0 mm 5 mps 751 mmHg 21%
    17:00 +40°C° 0 mm 5 mps 750 mmHg 18%
    18:00 +37°C° 0 mm 4 mps 750 mmHg 20%
    19:00 +35°C° 0 mm 3 mps 751 mmHg 22%
    20:00 +32°C° 0 mm 2 mps 751 mmHg 23%
    21:00 +31°C° 0 mm 2 mps 752 mmHg 26%
    22:00 +31°C° 0 mm 3 mps 752 mmHg 28%
    23:00 +31°C° 0 mm 3 mps 753 mmHg 30%

    25 February, Monday

    Time Temperature Precipitation Wind Pressure Humidity
    00:00 +30°C° 0 mm 3 mps 753 mmHg 41%
    01:00 +29°C° 0 mm 3 mps 753 mmHg 51%
    02:00 +28°C° 0 mm 3 mps 753 mmHg 62%
    03:00 +28°C° 0 mm 3 mps 753 mmHg 63%
    04:00 +28°C° 0 mm 3 mps 753 mmHg 64%
    05:00 +28°C° 0 mm 3 mps 753 mmHg 66%
    06:00 +28°C° 0 mm 4 mps 754 mmHg 63%
    07:00 +28°C° 0 mm 4 mps 755 mmHg 61%
    08:00 +28°C° 0 mm 5 mps 755 mmHg 59%
    09:00 +30°C° 0 mm 5 mps 755 mmHg 49%
    10:00 +33°C° 0 mm 5 mps 755 mmHg 39%
    11:00 +35°C° 0 mm 5 mps 755 mmHg 30%
    12:00 +37°C° 0 mm 5 mps 754 mmHg 27%
    13:00 +39°C° 0 mm 5 mps 753 mmHg 23%
    14:00 +40°C° 0 mm 5 mps 752 mmHg 20%
    15:00 +41°C° 0 mm 5 mps 751 mmHg 20%
    16:00 +41°C° 0 mm 5 mps 751 mmHg 20%
    17:00 +41°C° 0 mm 5 mps 750 mmHg 20%
    18:00 +38°C° 0 mm 4 mps 750 mmHg 23%
    19:00 +36°C° 0 mm 3 mps 751 mmHg 26%
    20:00 +34°C° 0 mm 2 mps 751 mmHg 29%
    21:00 +33°C° 0 mm 3 mps 752 mmHg 34%
    22:00 +33°C° 0 mm 4 mps 753 mmHg 39%
    23:00 +33°C° 0 mm 4 mps 753 mmHg 43%
    Show more